Location: Del Amo
(33.8464°N, 118.2104°W)
Time: 18:28:58
(UTC+00:00)

Vanguard 1 Rocket - Pass Details

Date: 19 September 2024
Orbit: 650 x 4218 km, 34.3° (Epoch: 04 October)

Event Time Altitude Azimuth Distance (km) Brightness Sun altitude
Rises 12:28:26 0° 267° (W) 5,479 - -15.4°
Reaches altitude 10° 12:31:18 10° 268° (W) 4,832 - -14.8°
Exits shadow 12:32:57 16° 268° (W) 4,495 10.3 -14.5°
Maximum altitude 12:46:57 89° 359° (N) 3,430 10.2 -11.6°
Drops below altitude 10° 13:13:12 10° 93° (E) 7,421 13.8 -6.2°
Sets 13:18:59 0° 94° (E) 8,384 14.7 -5.0°
